owner,sensor,date,latitude,longitude,vertical_datum,sea_water_temperature,qcFlag
Shell,ioos:station:wmo:42902:2,2021-04-01T00:03:00Z,28.6253,-87.9961,11.0,22.2,11111222
Shell,ioos:station:wmo:42902:2,2021-04-01T00:13:00Z,28.6253,-87.9961,11.0,22.2,11111222
Shell,ioos:station:wmo:42902:2,2021-04-01T00:23:00Z,28.6253,-87.9961,11.0,22.2,11111222
Shell,ioos:station:wmo:42902:2,2021-04-01T00:33:00Z,28.6253,-87.9961,11.0,22.3,11111222
Shell,ioos:station:wmo:42902:2,2021-04-01T00:43:00Z,28.6253,-87.9961,11.0,22.3,11111222
Shell,ioos:station:wmo:42902:2,2021-04-01T00:53:00Z,28.6252,-87.9961,11.0,22.3,11111222
Shell,ioos:station:wmo:42902:2,2021-04-01T01:03:00Z,28.6252,-87.9961,11.0,22.3,11111222
Shell,ioos:station:wmo:42902:2,2021-04-01T01:13:00Z,28.6252,-87.9961,11.0,22.2,11111222
Shell,ioos:station:wmo:42902:2,2021-04-05T04:20:00Z,28.6253,-87.9961,11.0,21.1,11111222
Shell,ioos:station:wmo:42902:2,2021-04-05T04:30:00Z,28.6252,-87.9961,11.0,21.1,11111222
Shell,ioos:station:wmo:42902:2,2021-04-05T04:40:00Z,28.6253,-87.9961,11.0,21.1,11111222
Shell,ioos:station:wmo:42902:2,2021-04-05T04:50:00Z,28.6252,-87.9961,11.0,21.1,11111222
Shell,ioos:station:wmo:42902:2,2021-04-05T05:00:00Z,28.6253,-87.9961,11.0,21.1,11111222
Shell,ioos:station:wmo:42902:2,2021-04-05T05:10:00Z,28.6253,-87.9961,11.0,21.1,11111222
Shell,ioos:station:wmo:42902:2,2021-04-05T05:20:00Z,28.6252,-87.9961,11.0,21.1,11111222
Shell,ioos:station:wmo:42902:2,2021-04-05T05:30:00Z,28.6253,-87.9961,11.0,21.1,11111222
Shell,ioos:station:wmo:42902:2,2021-04-05T05:40:00Z,28.6253,-87.9961,11.0,21.1,11111222
Shell,ioos:station:wmo:42902:2,2021-04-05T05:50:00Z,28.6253,-87.9961,11.0,21.1,11111222
Shell,ioos:station:wmo:42902:2,2021-04-05T06:00:00Z,28.6253,-87.9961,11.0,21.1,11111222
Shell,ioos:station:wmo:42902:2,2021-04-05T06:10:00Z,28.6253,-87.9961,11.0,21.1,11111222
Shell,ioos:station:wmo:42902:2,2021-04-05T06:20:00Z,28.6253,-87.9961,11.0,21.1,11111222
Shell,ioos:station:wmo:42902:2,2021-04-05T06:30:00Z,28.6252,-87.9961,11.0,21.1,11111222
Shell,ioos:station:wmo:42902:2,2021-04-05T06:40:00Z,28.6252,-87.9961,11.0,21.1,11111222
Shell,ioos:station:wmo:42902:2,2021-04-05T06:50:00Z,28.6252,-87.9961,11.0,21.1,11111222
Shell,ioos:station:wmo:42902:2,2021-04-05T07:00:00Z,28.6252,-87.9961,11.0,21.1,11111222
Shell,ioos:station:wmo:42902:2,2021-04-05T07:10:00Z,28.6252,-87.9961,11.0,21.1,11111222
Shell,ioos:station:wmo:42902:2,2021-04-05T07:20:00Z,28.6252,-87.9961,11.0,21.1,11111222
Shell,ioos:station:wmo:42902:2,2021-04-05T07:30:00Z,28.6252,-87.9961,11.0,21.1,11111222
Shell,ioos:station:wmo:42902:2,2021-04-05T07:40:00Z,28.6252,-87.9961,11.0,21.1,11111222
Shell,ioos:station:wmo:42902:2,2021-04-05T07:50:00Z,28.6252,-87.9961,11.0,21.1,11111222
Shell,ioos:station:wmo:42902:2,2021-04-05T08:00:00Z,28.6252,-87.9961,11.0,21.1,11111222
Shell,ioos:station:wmo:42902:2,2021-04-05T08:10:00Z,28.6252,-87.9961,11.0,21.1,11111222
Shell,ioos:station:wmo:42902:2,2021-04-05T08:20:00Z,28.6252,-87.9961,11.0,21.1,11111222
Shell,ioos:station:wmo:42902:2,2021-04-05T08:30:00Z,28.6253,-87.9961,11.0,21.1,11111222
Shell,ioos:station:wmo:42902:2,2021-04-05T08:40:00Z,28.6252,-87.9961,11.0,21.1,11111222
Shell,ioos:station:wmo:42902:2,2021-04-05T08:50:00Z,28.6253,-87.9961,11.0,21.1,11111222
Shell,ioos:station:wmo:42902:2,2021-04-05T09:00:00Z,28.6252,-87.9961,11.0,21.1,11111222
Shell,ioos:station:wmo:42902:2,2021-04-05T09:10:00Z,28.6252,-87.9961,11.0,21.1,11111222
Shell,ioos:station:wmo:42902:2,2021-04-05T09:20:00Z,28.6252,-87.9961,11.0,21.1,11111222
Shell,ioos:station:wmo:42902:2,2021-04-05T09:30:00Z,28.6252,-87.9961,11.0,21.1,11111222
Shell,ioos:station:wmo:42902:2,2021-04-05T09:40:00Z,28.6251,-87.9958,11.0,21.1,11111222
Shell,ioos:station:wmo:42902:2,2021-04-05T09:50:00Z,28.6249,-87.9956,11.0,21.1,11111222
Shell,ioos:station:wmo:42902:2,2021-04-05T10:00:00Z,28.6249,-87.9956,11.0,21.1,11111222
Shell,ioos:station:wmo:42902:2,2021-04-05T10:10:00Z,28.6249,-87.9956,11.0,21.1,11111222
Shell,ioos:station:wmo:42902:2,2021-04-05T10:20:00Z,28.6249,-87.9956,11.0,21.1,11111222
Shell,ioos:station:wmo:42902:2,2021-04-05T10:30:00Z,28.6249,-87.9956,11.0,21.1,11111222
Shell,ioos:station:wmo:42902:2,2021-04-05T10:40:00Z,28.6249,-87.9956,11.0,21.1,11111222
Shell,ioos:station:wmo:42902:2,2021-04-05T10:50:00Z,28.6249,-87.9956,11.0,21.1,11111222
Shell,ioos:station:wmo:42902:2,2021-04-05T11:00:00Z,28.6249,-87.9956,11.0,21.1,11111222
Shell,ioos:station:wmo:42902:2,2021-04-05T11:10:00Z,28.6249,-87.9956,11.0,21.1,11111222
Shell,ioos:station:wmo:42902:2,2021-04-05T11:20:00Z,28.6249,-87.9956,11.0,21.2,11111222
Shell,ioos:station:wmo:42902:2,2021-04-05T11:30:00Z,28.6249,-87.9956,11.0,21.2,11111222
Shell,ioos:station:wmo:42902:2,2021-04-05T11:40:00Z,28.6249,-87.9956,11.0,21.1,11111222
Shell,ioos:station:wmo:42902:2,2021-04-05T11:50:00Z,28.6249,-87.9956,11.0,21.2,11111222
Shell,ioos:station:wmo:42902:2,2021-04-05T12:00:00Z,28.6249,-87.9956,11.0,21.2,11111222
Shell,ioos:station:wmo:42902:2,2021-04-05T12:10:00Z,28.6252,-87.9960,11.0,21.2,11111222
Shell,ioos:station:wmo:42902:2,2021-04-05T12:20:00Z,28.6252,-87.9960,11.0,21.2,11111222
Shell,ioos:station:wmo:42902:2,2021-04-05T12:30:00Z,28.6252,-87.9960,11.0,21.3,11111222
Shell,ioos:station:wmo:42902:2,2021-04-05T12:40:00Z,28.6252,-87.9960,11.0,21.3,11111222
Shell,ioos:station:wmo:42902:2,2021-04-05T12:50:00Z,28.6252,-87.9960,11.0,21.3,11111222
Shell,ioos:station:wmo:42902:2,2021-04-05T13:00:00Z,28.6252,-87.9960,11.0,21.3,11111222
Shell,ioos:station:wmo:42902:2,2021-04-05T13:10:00Z,28.6252,-87.9960,11.0,21.3,11111222
Shell,ioos:station:wmo:42902:2,2021-04-05T13:20:00Z,28.6252,-87.9960,11.0,21.3,11111222
Shell,ioos:station:wmo:42902:2,2021-04-05T13:30:00Z,28.6252,-87.9960,11.0,21.3,11111222
Shell,ioos:station:wmo:42902:2,2021-04-05T13:40:00Z,28.6252,-87.9960,11.0,21.3,11111222
Shell,ioos:station:wmo:42902:2,2021-04-05T13:50:00Z,28.6252,-87.9960,11.0,21.3,11111222
Shell,ioos:station:wmo:42902:2,2021-04-05T14:00:00Z,28.6252,-87.9960,11.0,21.3,11111222
Shell,ioos:station:wmo:42902:2,2021-04-05T14:10:00Z,28.6252,-87.9960,11.0,21.3,11111222
Shell,ioos:station:wmo:42902:2,2021-04-05T14:20:00Z,28.6252,-87.9960,11.0,21.3,11111222
Shell,ioos:station:wmo:42902:2,2021-04-05T14:30:00Z,28.6252,-87.9960,11.0,21.3,11111222
Shell,ioos:station:wmo:42902:2,2021-04-05T14:40:00Z,28.6252,-87.9960,11.0,21.4,11111222
Shell,ioos:station:wmo:42902:2,2021-04-05T14:50:00Z,28.6252,-87.9960,11.0,21.4,11111222
Shell,ioos:station:wmo:42902:2,2021-04-05T15:00:00Z,28.6252,-87.9960,11.0,21.3,11111222
Shell,ioos:station:wmo:42902:2,2021-04-05T15:10:00Z,28.6252,-87.9960,11.0,21.4,11111222
Shell,ioos:station:wmo:42902:2,2021-04-05T15:20:00Z,28.6252,-87.9960,11.0,21.4,11111222
Shell,ioos:station:wmo:42902:2,2021-04-05T15:30:00Z,28.6252,-87.9960,11.0,21.3,11111222
Shell,ioos:station:wmo:42902:2,2021-04-05T15:40:00Z,28.6252,-87.9960,11.0,21.2,11111222
Shell,ioos:station:wmo:42902:2,2021-04-05T15:50:00Z,28.6252,-87.9960,11.0,21.2,11111222
Shell,ioos:station:wmo:42902:2,2021-04-05T16:00:00Z,28.6252,-87.9960,11.0,21.2,11111222
Shell,ioos:station:wmo:42902:2,2021-04-05T16:10:00Z,28.6252,-87.9960,11.0,21.3,11111222
Shell,ioos:station:wmo:42902:2,2021-04-05T16:20:00Z,28.6252,-87.9960,11.0,21.3,11111222
Shell,ioos:station:wmo:42902:2,2021-04-05T16:30:00Z,28.6252,-87.9960,11.0,21.2,11111222
Shell,ioos:station:wmo:42902:2,2021-04-05T16:40:00Z,28.6252,-87.9960,11.0,21.2,11111222
Shell,ioos:station:wmo:42902:2,2021-04-05T16:50:00Z,28.6252,-87.9960,11.0,21.3,11111222
Shell,ioos:station:wmo:42902:2,2021-04-05T17:00:00Z,28.6252,-87.9960,11.0,21.3,11111222
Shell,ioos:station:wmo:42902:2,2021-04-05T17:10:00Z,28.6252,-87.9960,11.0,21.3,11111222
Shell,ioos:station:wmo:42902:2,2021-04-05T17:20:00Z,28.6252,-87.9960,11.0,21.3,11111222
Shell,ioos:station:wmo:42902:2,2021-04-05T17:30:00Z,28.6252,-87.9960,11.0,21.3,11111222
Shell,ioos:station:wmo:42902:2,2021-04-05T17:40:00Z,28.6252,-87.9960,11.0,21.3,11111222
Shell,ioos:station:wmo:42902:2,2021-04-05T17:50:00Z,28.6252,-87.9960,11.0,21.3,11111222
Shell,ioos:station:wmo:42902:2,2021-04-05T18:00:00Z,28.6252,-87.9960,11.0,21.3,11111222
Shell,ioos:station:wmo:42902:2,2021-04-05T18:10:00Z,28.6252,-87.9960,11.0,21.3,11111222
Shell,ioos:station:wmo:42902:2,2021-04-05T18:20:00Z,28.6252,-87.9960,11.0,21.3,11111222
Shell,ioos:station:wmo:42902:2,2021-04-05T18:30:00Z,28.6252,-87.9960,11.0,21.3,11111222
Shell,ioos:station:wmo:42902:2,2021-04-05T18:40:00Z,28.6252,-87.9960,11.0,21.3,11111222
Shell,ioos:station:wmo:42902:2,2021-04-05T18:50:00Z,28.6252,-87.9960,11.0,21.3,11111222
Shell,ioos:station:wmo:42902:2,2021-04-05T19:00:00Z,28.6252,-87.9960,11.0,21.3,11111222
Shell,ioos:station:wmo:42902:2,2021-04-05T19:10:00Z,28.6252,-87.9960,11.0,21.3,11111222
Shell,ioos:station:wmo:42902:2,2021-04-05T19:20:00Z,28.6252,-87.9960,11.0,21.3,11111222
Shell,ioos:station:wmo:42902:2,2021-04-05T19:30:00Z,28.6252,-87.9960,11.0,21.3,11111222
Shell,ioos:station:wmo:42902:2,2021-04-05T19:40:00Z,28.6252,-87.9960,11.0,21.3,11111222
Shell,ioos:station:wmo:42902:2,2021-04-05T19:50:00Z,28.6252,-87.9960,11.0,21.4,11111222
Shell,ioos:station:wmo:42902:2,2021-04-05T20:00:00Z,28.6252,-87.9960,11.0,21.4,11111222
Shell,ioos:station:wmo:42902:2,2021-04-05T20:10:00Z,28.6252,-87.9960,11.0,21.4,11111222
Shell,ioos:station:wmo:42902:2,2021-04-05T20:20:00Z,28.6252,-87.9960,11.0,21.4,11111222
Shell,ioos:station:wmo:42902:2,2021-04-05T20:30:00Z,28.6252,-87.9960,11.0,21.4,11111222
Shell,ioos:station:wmo:42902:2,2021-04-05T20:40:00Z,28.6252,-87.9960,11.0,21.4,11111222
Shell,ioos:station:wmo:42902:2,2021-04-05T20:50:00Z,28.6252,-87.9960,11.0,21.4,11111222
Shell,ioos:station:wmo:42902:2,2021-04-05T21:00:00Z,28.6252,-87.9960,11.0,21.4,11111222
Shell,ioos:station:wmo:42902:2,2021-04-05T21:10:00Z,28.6252,-87.9960,11.0,21.4,11111222
Shell,ioos:station:wmo:42902:2,2021-04-05T21:20:00Z,28.6252,-87.9960,11.0,21.4,11111222
Shell,ioos:station:wmo:42902:2,2021-04-05T21:30:00Z,28.6252,-87.9960,11.0,21.4,11111222
Shell,ioos:station:wmo:42902:2,2021-04-05T21:40:00Z,28.6252,-87.9960,11.0,21.4,11111222
Shell,ioos:station:wmo:42902:2,2021-04-05T21:50:00Z,28.6252,-87.9960,11.0,21.4,11111222
Shell,ioos:station:wmo:42902:2,2021-04-05T22:00:00Z,28.6252,-87.9960,11.0,21.4,11111222
Shell,ioos:station:wmo:42902:2,2021-04-05T22:10:00Z,28.6252,-87.9960,11.0,21.4,11111222
Shell,ioos:station:wmo:42902:2,2021-04-05T22:20:00Z,28.6252,-87.9960,11.0,21.4,11111222
Shell,ioos:station:wmo:42902:2,2021-04-05T22:30:00Z,28.6252,-87.9960,11.0,21.4,11111222
Shell,ioos:station:wmo:42902:2,2021-04-05T22:40:00Z,28.6252,-87.9960,11.0,21.4,11111222
Shell,ioos:station:wmo:42902:2,2021-04-05T22:50:00Z,28.6252,-87.9960,11.0,21.3,11111222
Shell,ioos:station:wmo:42902:2,2021-04-05T23:00:00Z,28.6252,-87.9960,11.0,21.3,11111222
Shell,ioos:station:wmo:42902:2,2021-04-05T23:10:00Z,28.6252,-87.9960,11.0,21.3,11111222
Shell,ioos:station:wmo:42902:2,2021-04-05T23:20:00Z,28.6252,-87.9960,11.0,21.3,11111222
Shell,ioos:station:wmo:42902:2,2021-04-05T23:30:00Z,28.6252,-87.9960,11.0,21.3,11111222
Shell,ioos:station:wmo:42902:2,2021-04-05T23:40:00Z,28.6252,-87.9960,11.0,21.3,11111222
Shell,ioos:station:wmo:42902:2,2021-04-05T23:50:00Z,28.6252,-87.9960,11.0,21.3,11111222
Shell,ioos:station:wmo:42902:2,2021-04-06T00:00:00Z,28.6252,-87.9960,11.0,21.3,11111222
Shell,ioos:station:wmo:42902:2,2021-04-06T00:10:00Z,28.6252,-87.9960,11.0,21.3,11111222
Shell,ioos:station:wmo:42902:2,2021-04-06T00:20:00Z,28.6252,-87.9960,11.0,21.3,11111222
Shell,ioos:station:wmo:42902:2,2021-04-06T00:30:00Z,28.6252,-87.9960,11.0,21.3,11111222
Shell,ioos:station:wmo:42902:2,2021-04-06T00:40:00Z,28.6252,-87.9960,11.0,21.4,11111222
Shell,ioos:station:wmo:42902:2,2021-04-06T00:50:00Z,28.6252,-87.9960,11.0,21.3,11111222
Shell,ioos:station:wmo:42902:2,2021-04-06T01:00:00Z,28.6252,-87.9960,11.0,21.3,11111222
Shell,ioos:station:wmo:42902:2,2021-04-06T01:10:00Z,28.6252,-87.9960,11.0,21.3,11111222
Shell,ioos:station:wmo:42902:2,2021-04-06T01:20:00Z,28.6252,-87.9960,11.0,21.3,11111222
Shell,ioos:station:wmo:42902:2,2021-04-06T01:30:00Z,28.6252,-87.9960,11.0,21.3,11111222
Shell,ioos:station:wmo:42902:2,2021-04-06T01:40:00Z,28.6252,-87.9960,11.0,21.3,11111222
Shell,ioos:station:wmo:42902:2,2021-04-06T01:50:00Z,28.6252,-87.9960,11.0,21.4,11111222
Shell,ioos:station:wmo:42902:2,2021-04-06T02:00:00Z,28.6252,-87.9960,11.0,21.4,11111222
Shell,ioos:station:wmo:42902:2,2021-04-06T02:10:00Z,28.6252,-87.9960,11.0,21.4,11111222
Shell,ioos:station:wmo:42902:2,2021-04-06T02:20:00Z,28.6252,-87.9960,11.0,21.5,11111222
Shell,ioos:station:wmo:42902:2,2021-04-06T02:30:00Z,28.6252,-87.9960,11.0,21.5,11111222
Shell,ioos:station:wmo:42902:2,2021-04-06T02:40:00Z,28.6252,-87.9960,11.0,21.5,11111222
Shell,ioos:station:wmo:42902:2,2021-04-06T02:50:00Z,28.6252,-87.9960,11.0,21.5,11111222
Shell,ioos:station:wmo:42902:2,2021-04-06T03:00:00Z,28.6252,-87.9960,11.0,21.5,11111222
Shell,ioos:station:wmo:42902:2,2021-04-06T03:10:00Z,28.6252,-87.9960,11.0,21.5,11111222
Shell,ioos:station:wmo:42902:2,2021-04-06T03:20:00Z,28.6252,-87.9960,11.0,21.5,11111222
Shell,ioos:station:wmo:42902:2,2021-04-06T03:30:00Z,28.6252,-87.9960,11.0,21.5,11111222
Shell,ioos:station:wmo:42902:2,2021-04-06T03:40:00Z,28.6252,-87.9960,11.0,21.4,11111222
Shell,ioos:station:wmo:42902:2,2021-04-06T03:50:00Z,28.6252,-87.9960,11.0,21.4,11111222
Shell,ioos:station:wmo:42902:2,2021-04-06T04:00:00Z,28.6252,-87.9960,11.0,21.4,11111222
Shell,ioos:station:wmo:42902:2,2021-04-06T04:10:00Z,28.6253,-87.9960,11.0,21.5,11111222
Shell,ioos:station:wmo:42902:2,2021-04-06T04:20:00Z,28.6253,-87.9960,11.0,21.4,11111222
Shell,ioos:station:wmo:42902:2,2021-04-06T04:30:00Z,28.6252,-87.9960,11.0,21.4,11111222
Shell,ioos:station:wmo:42902:2,2021-04-06T04:40:00Z,28.6250,-87.9972,11.0,21.4,11111222
Shell,ioos:station:wmo:42902:2,2021-04-06T04:50:00Z,28.6245,-87.9974,11.0,21.4,11111222
Shell,ioos:station:wmo:42902:2,2021-04-06T04:53:00Z,28.6245,-87.9974,11.0,21.4,11111222
Shell,ioos:station:wmo:42902:2,2021-04-06T05:06:00Z,28.6245,-87.9974,11.0,21.4,11111222
Shell,ioos:station:wmo:42902:2,2021-04-06T05:16:00Z,28.6245,-87.9974,11.0,21.4,11111222
Shell,ioos:station:wmo:42902:2,2021-04-06T05:26:00Z,28.6245,-87.9974,11.0,21.4,11111222
Shell,ioos:station:wmo:42902:2,2021-04-06T05:36:00Z,28.6245,-87.9974,11.0,21.4,11111222
Shell,ioos:station:wmo:42902:2,2021-04-06T05:46:00Z,28.6245,-87.9974,11.0,21.3,11111222
Shell,ioos:station:wmo:42902:2,2021-04-06T05:56:00Z,28.6245,-87.9974,11.0,21.3,11111222
Shell,ioos:station:wmo:42902:2,2021-04-06T06:06:00Z,28.6245,-87.9974,11.0,21.3,11111222
Shell,ioos:station:wmo:42902:2,2021-04-06T06:16:00Z,28.6245,-87.9974,11.0,21.3,11111222
Shell,ioos:station:wmo:42902:2,2021-04-06T06:26:00Z,28.6245,-87.9974,11.0,21.3,11111222
Shell,ioos:station:wmo:42902:2,2021-04-06T06:36:00Z,28.6245,-87.9974,11.0,21.3,11111222
Shell,ioos:station:wmo:42902:2,2021-04-06T06:46:00Z,28.6245,-87.9974,11.0,21.3,11111222
Shell,ioos:station:wmo:42902:2,2021-04-06T06:56:00Z,28.6245,-87.9974,11.0,21.3,11111222
Shell,ioos:station:wmo:42902:2,2021-04-06T07:06:00Z,28.6245,-87.9974,11.0,21.3,11111222
Shell,ioos:station:wmo:42902:2,2021-04-06T07:16:00Z,28.6245,-87.9974,11.0,21.3,11111222
Shell,ioos:station:wmo:42902:2,2021-04-06T07:26:00Z,28.6245,-87.9974,11.0,21.2,11111222
Shell,ioos:station:wmo:42902:2,2021-04-06T07:36:00Z,28.6245,-87.9974,11.0,21.1,11111222
Shell,ioos:station:wmo:42902:2,2021-04-06T07:46:00Z,28.6245,-87.9974,11.0,21.2,11111222
Shell,ioos:station:wmo:42902:2,2021-04-06T07:56:00Z,28.6246,-87.9974,11.0,21.3,11111222
Shell,ioos:station:wmo:42902:2,2021-04-06T08:06:00Z,28.6245,-87.9974,11.0,21.3,11111222
Shell,ioos:station:wmo:42902:2,2021-04-06T08:16:00Z,28.6245,-87.9974,11.0,21.3,11111222
Shell,ioos:station:wmo:42902:2,2021-04-06T08:26:00Z,28.6245,-87.9974,11.0,21.2,11111222
Shell,ioos:station:wmo:42902:2,2021-04-06T08:36:00Z,28.6245,-87.9974,11.0,21.2,11111222
Shell,ioos:station:wmo:42902:2,2021-04-06T08:46:00Z,28.6245,-87.9974,11.0,21.2,11111222
Shell,ioos:station:wmo:42902:2,2021-04-06T08:56:00Z,28.6245,-87.9974,11.0,21.2,11111222
Shell,ioos:station:wmo:42902:2,2021-04-06T09:06:00Z,28.6245,-87.9974,11.0,21.3,11111222
Shell,ioos:station:wmo:42902:2,2021-04-06T09:16:00Z,28.6246,-87.9974,11.0,21.3,11111222
Shell,ioos:station:wmo:42902:2,2021-04-06T09:26:00Z,28.6245,-87.9974,11.0,21.2,11111222
Shell,ioos:station:wmo:42902:2,2021-04-06T09:36:00Z,28.6245,-87.9974,11.0,21.1,11111222
Shell,ioos:station:wmo:42902:2,2021-04-06T09:46:00Z,28.6245,-87.9974,11.0,21.2,11111222
Shell,ioos:station:wmo:42902:2,2021-04-06T09:56:00Z,28.6245,-87.9974,11.0,21.2,11111222
Shell,ioos:station:wmo:42902:2,2021-04-06T10:06:00Z,28.6245,-87.9974,11.0,21.2,11111222
Shell,ioos:station:wmo:42902:2,2021-04-06T10:16:00Z,28.6248,-87.9972,11.0,21.2,11111222
Shell,ioos:station:wmo:42902:2,2021-04-06T10:26:00Z,28.6252,-87.9968,11.0,21.2,11111222
Shell,ioos:station:wmo:42902:2,2021-04-06T10:36:00Z,28.6256,-87.9965,11.0,21.2,11111222
Shell,ioos:station:wmo:42902:2,2021-04-06T10:46:00Z,28.6256,-87.9965,11.0,21.2,11111222
Shell,ioos:station:wmo:42902:2,2021-04-06T10:56:00Z,28.6256,-87.9965,11.0,21.2,11111222
Shell,ioos:station:wmo:42902:2,2021-04-06T11:06:00Z,28.6256,-87.9965,11.0,21.3,11111222
Shell,ioos:station:wmo:42902:2,2021-04-06T11:16:00Z,28.6256,-87.9965,11.0,21.3,11111222
Shell,ioos:station:wmo:42902:2,2021-04-06T11:26:00Z,28.6256,-87.9965,11.0,21.3,11111222
Shell,ioos:station:wmo:42902:2,2021-04-06T11:36:00Z,28.6256,-87.9965,11.0,21.3,11111222
Shell,ioos:station:wmo:42902:2,2021-04-06T11:46:00Z,28.6256,-87.9965,11.0,21.3,11111222
Shell,ioos:station:wmo:42902:2,2021-04-06T11:56:00Z,28.6256,-87.9965,11.0,21.3,11111222
Shell,ioos:station:wmo:42902:2,2021-04-06T12:06:00Z,28.6257,-87.9965,11.0,21.4,11111222
Shell,ioos:station:wmo:42902:2,2021-04-06T12:16:00Z,28.6256,-87.9965,11.0,21.5,11111222
Shell,ioos:station:wmo:42902:2,2021-04-06T12:26:00Z,28.6256,-87.9965,11.0,21.5,11111222
Shell,ioos:station:wmo:42902:2,2021-04-06T12:36:00Z,28.6256,-87.9965,11.0,21.5,11111222
Shell,ioos:station:wmo:42902:2,2021-04-06T12:46:00Z,28.6256,-87.9965,11.0,21.5,11111222
Shell,ioos:station:wmo:42902:2,2021-04-06T12:56:00Z,28.6256,-87.9965,11.0,21.5,11111222
Shell,ioos:station:wmo:42902:2,2021-04-06T13:06:00Z,28.6256,-87.9965,11.0,21.5,11111222
Shell,ioos:station:wmo:42902:2,2021-04-06T13:16:00Z,28.6256,-87.9965,11.0,21.5,11111222
Shell,ioos:station:wmo:42902:2,2021-04-06T13:26:00Z,28.6256,-87.9965,11.0,21.5,11111222
Shell,ioos:station:wmo:42902:2,2021-04-06T13:36:00Z,28.6256,-87.9965,11.0,21.5,11111222
Shell,ioos:station:wmo:42902:2,2021-04-06T13:46:00Z,28.6256,-87.9965,11.0,21.5,11111222
Shell,ioos:station:wmo:42902:2,2021-04-06T13:56:00Z,28.6256,-87.9965,11.0,21.5,11111222
Shell,ioos:station:wmo:42902:2,2021-04-06T14:06:00Z,28.6256,-87.9965,11.0,21.5,11111222
Shell,ioos:station:wmo:42902:2,2021-04-06T14:16:00Z,28.6254,-87.9967,11.0,21.5,11111222
Shell,ioos:station:wmo:42902:2,2021-04-06T14:26:00Z,28.6249,-87.9971,11.0,21.5,11111222
Shell,ioos:station:wmo:42902:2,2021-04-06T14:36:00Z,28.6249,-87.9971,11.0,21.5,11111222
Shell,ioos:station:wmo:42902:2,2021-04-06T14:46:00Z,28.6249,-87.9971,11.0,21.5,11111222
Shell,ioos:station:wmo:42902:2,2021-04-06T14:56:00Z,28.6249,-87.9971,11.0,21.5,11111222
Shell,ioos:station:wmo:42902:2,2021-04-06T15:06:00Z,28.6248,-87.9971,11.0,21.5,11111222
Shell,ioos:station:wmo:42902:2,2021-04-06T15:16:00Z,28.6249,-87.9971,11.0,21.5,11111222
Shell,ioos:station:wmo:42902:2,2021-04-06T15:26:00Z,28.6249,-87.9971,11.0,21.6,11111222
Shell,ioos:station:wmo:42902:2,2021-04-06T15:36:00Z,28.6249,-87.9971,11.0,21.6,11111222
Shell,ioos:station:wmo:42902:2,2021-04-06T15:46:00Z,28.6249,-87.9971,11.0,21.6,11111222
Shell,ioos:station:wmo:42902:2,2021-04-06T15:56:00Z,28.6249,-87.9971,11.0,21.6,11111222
Shell,ioos:station:wmo:42902:2,2021-04-06T16:06:00Z,28.6248,-87.9971,11.0,21.6,11111222
Shell,ioos:station:wmo:42902:2,2021-04-06T16:16:00Z,28.6248,-87.9971,11.0,21.7,11111222
Shell,ioos:station:wmo:42902:2,2021-04-06T16:26:00Z,28.6248,-87.9971,11.0,21.7,11111222
Shell,ioos:station:wmo:42902:2,2021-04-06T16:36:00Z,28.6248,-87.9971,11.0,21.6,11111222
Shell,ioos:station:wmo:42902:2,2021-04-06T16:46:00Z,28.6248,-87.9971,11.0,21.6,11111222
Shell,ioos:station:wmo:42902:2,2021-04-06T16:56:00Z,28.6248,-87.9971,11.0,21.7,11111222
Shell,ioos:station:wmo:42902:2,2021-04-06T17:06:00Z,28.6248,-87.9971,11.0,21.7,11111222
Shell,ioos:station:wmo:42902:2,2021-04-06T17:16:00Z,28.6248,-87.9971,11.0,21.7,11111222
Shell,ioos:station:wmo:42902:2,2021-04-06T17:26:00Z,28.6248,-87.9971,11.0,21.7,11111222
Shell,ioos:station:wmo:42902:2,2021-04-06T17:36:00Z,28.6248,-87.9971,11.0,21.7,11111222
Shell,ioos:station:wmo:42902:2,2021-04-06T17:46:00Z,28.6248,-87.9971,11.0,21.7,11111222
Shell,ioos:station:wmo:42902:2,2021-04-06T17:56:00Z,28.6248,-87.9971,11.0,21.7,11111222
Shell,ioos:station:wmo:42902:2,2021-04-06T18:06:00Z,28.6248,-87.9971,11.0,21.7,11111222
Shell,ioos:station:wmo:42902:2,2021-04-06T18:16:00Z,28.6248,-87.9971,11.0,21.7,11111222
Shell,ioos:station:wmo:42902:2,2021-04-06T18:26:00Z,28.6250,-87.9969,11.0,21.7,11111222
Shell,ioos:station:wmo:42902:2,2021-04-06T18:36:00Z,28.6255,-87.9965,11.0,21.7,11111222
Shell,ioos:station:wmo:42902:2,2021-04-06T18:46:00Z,28.6259,-87.9962,11.0,21.8,11111222
Shell,ioos:station:wmo:42902:2,2021-04-06T18:56:00Z,28.6264,-87.9958,11.0,21.8,11111222
Shell,ioos:station:wmo:42902:2,2021-04-06T19:06:00Z,28.6264,-87.9958,11.0,21.8,11111222
Shell,ioos:station:wmo:42902:2,2021-04-06T19:16:00Z,28.6264,-87.9958,11.0,21.8,11111222
Shell,ioos:station:wmo:42902:2,2021-04-06T19:26:00Z,28.6264,-87.9958,11.0,21.8,11111222
Shell,ioos:station:wmo:42902:2,2021-04-06T19:36:00Z,28.6264,-87.9958,11.0,21.8,11111222
Shell,ioos:station:wmo:42902:2,2021-04-06T19:46:00Z,28.6264,-87.9958,11.0,21.8,11111222
Shell,ioos:station:wmo:42902:2,2021-04-06T19:56:00Z,28.6264,-87.9958,11.0,21.9,11111222
Shell,ioos:station:wmo:42902:2,2021-04-06T20:06:00Z,28.6264,-87.9958,11.0,21.8,11111222
Shell,ioos:station:wmo:42902:2,2021-04-06T20:16:00Z,28.6264,-87.9958,11.0,21.8,11111222
Shell,ioos:station:wmo:42902:2,2021-04-06T20:26:00Z,28.6264,-87.9958,11.0,21.9,11111222
Shell,ioos:station:wmo:42902:2,2021-04-06T20:36:00Z,28.6264,-87.9958,11.0,21.9,11111222
Shell,ioos:station:wmo:42902:2,2021-04-06T20:46:00Z,28.6264,-87.9958,11.0,21.9,11111222
Shell,ioos:station:wmo:42902:2,2021-04-06T20:56:00Z,28.6264,-87.9958,11.0,21.9,11111222
Shell,ioos:station:wmo:42902:2,2021-04-06T21:06:00Z,28.6264,-87.9958,11.0,21.9,11111222
Shell,ioos:station:wmo:42902:2,2021-04-06T21:16:00Z,28.6264,-87.9958,11.0,21.9,11111222
Shell,ioos:station:wmo:42902:2,2021-04-06T21:26:00Z,28.6264,-87.9958,11.0,21.8,11111222
Shell,ioos:station:wmo:42902:2,2021-04-06T21:36:00Z,28.6264,-87.9958,11.0,21.8,11111222
Shell,ioos:station:wmo:42902:2,2021-04-06T21:46:00Z,28.6264,-87.9958,11.0,21.8,11111222
Shell,ioos:station:wmo:42902:2,2021-04-06T21:56:00Z,28.6264,-87.9958,11.0,21.8,11111222
Shell,ioos:station:wmo:42902:2,2021-04-06T22:06:00Z,28.6264,-87.9958,11.0,21.8,11111222
Shell,ioos:station:wmo:42902:2,2021-04-06T22:16:00Z,28.6264,-87.9958,11.0,21.8,11111222
Shell,ioos:station:wmo:42902:2,2021-04-06T22:26:00Z,28.6264,-87.9958,11.0,21.8,11111222
Shell,ioos:station:wmo:42902:2,2021-04-06T22:36:00Z,28.6264,-87.9958,11.0,21.8,11111222
Shell,ioos:station:wmo:42902:2,2021-04-06T22:46:00Z,28.6264,-87.9958,11.0,21.8,11111222
Shell,ioos:station:wmo:42902:2,2021-04-06T22:56:00Z,28.6264,-87.9958,11.0,21.8,11111222
Shell,ioos:station:wmo:42902:2,2021-04-06T23:06:00Z,28.6264,-87.9958,11.0,21.8,11111222
Shell,ioos:station:wmo:42902:2,2021-04-06T23:16:00Z,28.6264,-87.9958,11.0,21.8,11111222
Shell,ioos:station:wmo:42902:2,2021-04-06T23:26:00Z,28.6264,-87.9958,11.0,21.8,11111222